GW4019 Weather Reports


time (UTC)temp
F
wind
direction
speed
knots
gust
knots
rain 1hr
in
rain 24hr
in
rain mn
in
humidity
%
barometer
mb
20260503223058 63 0 0.0 1.7 0.00 0.00 0.00 75 1014.0
20260503221559 62 0 0.0 3.5 0.00 0.00 0.00 78 1014.1
20260503220058 62 0 0.0 1.7 0.00 0.00 0.00 77 1014.1
20260503214557 62 0 0.0 2.6 0.00 0.00 0.00 77 1014.1
20260503213055 62 0 0.0 1.7 0.00 0.00 0.00 77 1013.9
20260503211555 62 153 0.0 2.6 0.00 0.00 0.00 77 1013.9
20260503210100 61 0 0.0 2.6 0.00 0.00 0.00 78 1014.0
20260503204558 61 0 0.0 4.3 0.00 0.00 0.00 78 1014.0
20260503203100 62 0 0.0 2.6 0.00 0.00 0.00 77 1014.0
20260503201609 61 0 0.0 1.7 0.00 0.00 0.00 78 1014.2
20260503200100 61 0 0.0 1.7 0.00 0.00 0.00 80 1014.1
20260503194601 61 0 0.0 1.7 0.00 0.00 0.00 80 1014.2
20260503193056 61 0 0.0 2.6 0.00 0.00 0.00 80 1014.2
20260503191558 60 0 0.0 2.6 0.00 0.00 0.00 83 1014.2
20260503190059 59 0 0.0 2.6 0.00 0.00 0.00 84 1014.1
20260503184558 59 0 0.0 3.5 0.00 0.00 0.00 83 1014.1
20260503183054 59 150 0.0 2.6 0.00 0.00 0.00 84 1014.1
20260503181555 59 0 0.0 3.5 0.00 0.00 0.00 84 1014.0
20260503180106 59 0 0.0 5.2 0.00 0.00 0.00 85 1014.1
20260503174559 59 172 0.9 2.6 0.00 0.00 0.00 84 1014.0
20260503173059 58 0 0.0 1.7 0.00 0.00 0.00 87 1013.8
20260503171554 57 113 0.0 1.7 0.00 0.00 0.00 90 1013.8
20260503170104 56 0 0.0 1.7 0.00 0.00 0.00 91 1013.9
20260503110108 54 0 0.0 0.0 0.00 0.00 0.00 89 1011.6
20260503081553 54 0 0.0 1.7 0.00 0.00 0.00 89 1012.7
20260503071613 54 0 0.0 0.0 0.00 0.00 0.00 89 1012.7
20260503060123 54 0 0.9 1.7 0.00 0.00 0.00 88 1013.0
20260503054601 54 329 0.0 1.7 0.00 0.00 0.00 88 1013.1
20260503053100 54 0 0.0 1.7 0.00 0.00 0.00 88 1013.3
20260503051601 54 0 0.0 1.7 0.00 0.00 0.00 88 1013.4
20260503050101 54 325 0.0 2.6 0.00 0.00 0.00 88 1013.3
20260503044604 54 0 0.0 2.6 0.00 0.00 0.00 87 1013.4
20260503043051 55 0 0.9 2.6 0.00 0.00 0.00 87 1013.2
20260503041551 55 0 0.0 2.6 0.00 0.00 0.00 87 1013.1
20260503040111 55 336 0.0 2.6 0.00 0.00 0.00 87 1013.0
20260503034553 55 329 1.7 4.3 0.00 0.00 0.00 86 1013.0
20260503033104 55 0 0.0 1.7 0.00 0.00 0.00 86 1012.9
20260503031605 55 304 0.9 2.6 0.00 0.00 0.00 86 1012.8
20260503030055 55 307 0.9 4.3 0.00 0.00 0.00 85 1012.5
20260503024557 55 296 0.9 4.3 0.00 0.00 0.00 85 1012.5
20260503023053 56 301 0.0 4.3 0.00 0.00 0.00 84 1012.3
20260503021600 56 302 1.7 6.1 0.00 0.00 0.00 84 1012.3
20260503020054 56 306 0.0 3.5 0.00 0.00 0.00 83 1012.4
20260503014607 56 0 0.0 3.5 0.00 0.00 0.00 83 1012.7
20260503013055 57 0 0.0 3.5 0.00 0.00 0.00 83 1012.7
20260503011600 57 0 0.0 4.3 0.00 0.00 0.00 83 1012.9
20260503010055 57 309 0.9 3.5 0.00 0.00 0.00 82 1012.9
20260503004555 57 327 0.9 4.3 0.00 0.00 0.00 82 1012.9
20260503003057 57 304 0.9 7.0 0.00 0.00 0.00 82 1013.0
20260503001607 58 312 1.7 6.1 0.00 0.00 0.00 81 1013.1
20260503000055 58 300 1.7 4.3 0.00 0.00 0.00 81 1013.2
20260502234556 59 297 1.7 6.1 0.00 0.00 0.00 80 1013.1
20260502233054 59 0 1.7 4.3 0.00 0.00 0.00 80 1013.2
20260502231554 59 304 0.0 3.5 0.00 0.00 0.00 80 1013.3
20260502230053 59 0 0.0 3.5 0.00 0.00 0.00 80 1013.6
20260502224554 59 336 0.0 2.6 0.00 0.00 0.00 80 1013.8